Погода в Сомертоне

Великобритания     51°03′15″N   2°44′04″W
темп.,
°C
ветер,
м/с
пор.,
м/с
влажн.,
%
обл.,
%
осадки,
мм/ч
давл.,
гПа
погр.,
м
15 августа, пн
пн1501:00+18зюз11575 0.0 100311
04:00+16ююз11618 0.0 100211
07:00+18ююз1157100 0.0 100321
10:00+22сз3747100 0.0 1003543
13:00+25сз4338100 0.0 10031310
16:00+26св233693 0.0 10021317
19:00+20сз1267100 0.3 1003198
22:00+16всв1185100 0.1 100411
16 августа, вт
вт1601:00+15св1188100 0.1 100411
04:00+15юз019195 0.1 100411
07:00+16ююз3991100 1.5 1005332
10:00+18зюз3580100 0.3 1005338
13:00+18ю1281100 1.4 1006167
16:00+21юв4357100 0.0 10071002
19:00+17вюв1179100 0.2 100813
22:00+16ссв1183100 0.0 100911
17 августа, ср
ср1701:00+14ссв229059 0.0 101012
04:00+13ссв38955 0.0 1011183
07:00+16св61089100 0.1 1012583
10:00+18св71078100 0.0 1013813
13:00+20св6866100 0.3 10141128
16:00+23св6753100 0.0 10141545
19:00+21ссв685565 0.1 1015946
22:00+19с496198 0.0 1017429
18 августа, чт
чт1801:00+18ссв4967100 0.0 1017397
04:00+15ссв258290 0.0 1017145
07:00+14св1286100 0.0 101881
10:00+20с225564 0.0 1018691
13:00+25зсз233758 0.0 10171566
16:00+25сз4642100 0.0 10161629
19:00+22сз455798 0.0 1016740
22:00+17зюз23895 0.0 101745
19 августа, пт
пт1901:00+16ююз369613 0.0 1016151
04:00+16ююз369690 0.0 1016148
07:00+17ююз41088100 0.0 1015429
10:00+18зюз4789100 0.6 1015363
13:00+22з686446 1.9 10151434
16:00+25зсз79350 0.0 10141947
19:00+20сз78624 0.0 10161105
22:00+13з33820 0.0 101753